#timestamp,LO_Frequency,Hit 
1501020015.4,286047249.8,N
1501020035.2,286047254.3,Y
1501020055.0,286047029.9,N
1501020055.9,286047029.9,N
1501020075.8,286047023.9,N
1501020095.6,286047029.2,N
1501020115.4,286047033.5,N
1501020135.3,286047030.7,N
1501020155.1,286047029.9,N
1501020156.0,286047029.9,N
1501020175.8,286047030.8,N
1501020195.7,286047029.8,N
1501020215.5,286047026.4,N
1501020235.3,286047024.2,N
1501020255.1,286047028.2,N
1501020275.9,286047024.4,N
1501020295.7,286047028.2,N
1501020315.5,286047029.2,N
1501020335.4,286047036.0,N
1501020355.2,286047039.3,N
1501020375.0,286047039.0,N
1501020375.9,286047039.0,N
1501020395.8,286047041.0,N
1501020415.6,286047039.2,N
1501020435.4,286047034.5,N
1501020455.3,286047030.3,N
1501020475.1,286047035.3,N
1501020476.0,286047035.3,N
1501020495.8,286047034.8,N
1501020515.6,286047034.7,N
1501020535.5,286047034.4,N
1501020555.3,286047029.0,N
1501020575.1,286047030.2,N
1501020595.9,286047032.8,N
1501020615.7,286047032.2,N
1501020635.5,286047033.4,N
1501020655.4,286047039.2,N
1501020675.2,286047032.3,N
1501020695.0,286047028.4,N
1501020695.9,286047028.4,N
1501020715.8,286047020.9,N
1501020735.6,286047018.6,N
1501020755.4,286047015.5,N
1501020775.2,286047018.2,N
1501020795.1,286047017.7,N
1501020796.0,286047017.7,N
1501020815.8,286047016.8,N
1501020835.6,286047012.6,N
1501020855.5,286047011.7,N
1501020875.3,286047008.3,N
1501020895.1,286047004.5,N
1501020915.9,286047007.6,N
1501020935.7,286047008.1,N
1501020955.5,286047016.7,N
1501020975.4,286047020.8,N
1501020995.2,286047027.2,N
1501021015.0,286047026.6,N
1501021015.9,286047026.6,N
1501021035.7,286047029.1,N
1501021055.6,286047036.4,N
1501021075.4,286047039.5,N
1501021095.2,286047038.1,N
1501021115.1,286047041.6,N
1501021116.0,286047041.6,N
1501021135.8,286047039.8,N
1501021155.6,286047039.0,N
1501021175.5,286047035.4,N
1501021195.3,286047030.2,N
1501021215.1,286047033.1,N
1501021235.9,286047031.1,N
1501021255.7,286047030.1,N
1501021275.5,286047029.9,N
1501021295.3,286047028.4,N
1501021315.2,286047027.3,N
1501021335.0,286047026.4,N
1501021335.9,286047026.4,N
1501021355.7,286047022.2,N
1501021375.6,286047029.2,N
1501021395.4,286047033.3,N
1501021415.2,286047041.1,N
1501021435.1,286047036.1,N
1501021436.0,286047036.1,N
1501021455.8,286047031.6,N
1501021475.6,286047034.7,N
1501021495.5,286047032.1,N
1501021515.3,286047027.3,N
1501021535.1,286047028.4,N
1501021555.9,286047024.7,N
1501021575.7,286047021.4,N
1501021595.5,286047017.6,N
1501021615.3,286047020.7,N
1501021635.2,286047023.0,N
1501021655.9,286047023.2,N
1501021675.7,286047024.9,N
1501021695.6,286047029.3,N
1501021715.4,286047029.0,N
1501021735.2,286047027.2,N
1501021755.1,286047031.5,N
1501021756.0,286047031.5,N
1501021775.8,286047037.4,N
1501021795.6,286047040.3,N
1501021815.4,286047043.6,N
1501021835.3,286047040.1,N
1501021855.1,286047037.2,N
1501021875.8,286047033.8,N
1501021895.7,286047030.2,N
1501021915.5,286047025.5,N
1501021935.3,286047022.4,N
1501021955.2,286047017.3,N
1501021975.9,286047016.8,N
1501021995.7,286047016.8,N
1501022015.6,286047022.9,N
1501022035.4,286047024.0,N
1501022055.2,286047023.8,N
1501022075.0,286047026.5,N
1501022075.9,286047026.5,N
1501022095.8,286047025.4,N
1501022115.6,286047027.1,N
1501022135.4,286047024.0,N
1501022155.3,286047022.6,N
1501022175.1,286047028.7,N
1501022176.0,286047028.7,N
1501022195.8,286047031.6,N
1501022215.7,286047036.4,N
1501022235.5,286047038.9,N
1501022255.3,286047043.6,N
1501022275.2,286047046.8,N
1501022295.9,286047050.8,N
1501022315.7,286047045.5,N
1501022335.5,286047039.6,N
1501022355.4,286047036.0,N
1501022375.2,286047033.9,N
1501022395.0,286047034.8,N
1501022395.9,286047034.8,N
1501022415.8,286047031.2,N
1501022435.6,286047027.2,N
1501022455.4,286047027.0,N
1501022475.3,286047029.2,N
1501022495.1,286047031.8,N
1501022496.0,286047031.8,N
1501022515.8,286047031.7,N
1501022535.7,286047029.4,N
1501022555.5,286047028.6,N
1501022575.3,286047036.3,N
1501022595.1,286047036.2,N
1501022615.9,286047034.0,N
1501022635.7,286047041.2,N
1501022655.5,286047043.2,N
1501022675.4,286047047.0,N
1501022695.2,286047045.7,N
1501022715.0,286047043.7,N
1501022715.9,286047043.7,N
1501022735.9,286047041.3,N
1501022755.7,286047043.2,N
1501022775.5,286047039.9,N
1501022795.3,286047044.0,N
1501022815.2,286047045.6,N
1501022835.0,286047046.9,N
1501022835.9,286047046.9,N
1501022855.7,286047045.6,N
1501022875.6,286047042.6,N
1501022895.4,286047045.7,N
1501022915.2,286047042.3,N
1501022935.1,286047035.0,N
1501022936.0,286047035.0,N
1501022955.8,286047032.1,N
1501022975.6,286047030.5,N
1501022995.5,286047037.2,N
1501023015.3,286047037.7,N
1501023035.1,286047040.2,N
1501023055.8,286047047.0,N
1501023075.7,286047045.4,N
1501023095.5,286047045.8,N
1501023115.3,286047045.6,N
1501023135.2,286047041.4,N
1501023155.9,286047039.2,N
1501023175.7,286047036.5,N
1501023195.6,286047039.0,N
1501023215.4,286047037.9,N
1501023235.2,286047037.9,N
1501023255.0,286047035.5,N
1501023256.0,286047035.5,N
1501023275.8,286047037.7,N
1501023295.6,286047039.9,N
1501023315.4,286047044.3,N
1501023335.3,286047041.5,N
1501023355.1,286047039.0,N
1501023375.8,286047034.9,N
1501023395.7,286047033.8,N
1501023415.5,286047032.1,N
1501023435.3,286047032.0,N
1501023455.2,286047035.6,N
1501023475.9,286047037.2,N
1501023495.7,286047037.1,N
1501023515.6,286047035.0,N
1501023535.4,286047034.1,N
1501023555.2,286047034.7,N
1501023575.0,286047033.3,N
1501023575.9,286047033.3,N
1501023595.8,286047036.7,N
